EW1047 Weather Reports


Display with metric or nautical units.
time (UTC)temp
F
wind
direction
speed
MPH
gust
MPH
rain 1hr
in
rain 24hr
in
rain mn
in
humidity
%
barometer
mb
20260505200204 58 240 11.0 20.0 0.00 0.00 0.00 46 1015.0
20260505194703 58 243 13.0 20.0 0.00 0.00 0.00 47 1015.0
20260505194203 59 251 13.0 20.0 0.00 0.00 0.00 46 1015.0
20260505193704 59 241 7.0 14.0 0.00 0.00 0.00 43 1015.0
20260505193203 60 249 10.0 16.0 0.00 0.00 0.00 44 1015.0
20260505191703 58 268 9.0 14.0 0.00 0.00 0.00 47 1015.0
20260505191203 58 247 10.0 16.0 0.00 0.00 0.00 47 1015.0
20260505190704 57 264 9.0 14.0 0.00 0.00 0.00 50 1015.0
20260505190203 57 235 7.0 17.0 0.00 0.00 0.00 52 1016.0
20260505184703 60 219 7.0 12.0 0.00 0.00 0.00 39 1016.0
20260505184203 60 247 7.0 14.0 0.00 0.00 0.00 39 1016.0
20260505183703 59 200 4.0 9.0 0.00 0.00 0.00 37 1016.0
20260505183203 59 184 2.0 12.0 0.00 0.00 0.00 38 1016.0
20260505181203 59 152 3.0 8.0 0.00 0.00 0.00 37 1016.0
20260505180204 59 171 6.0 14.0 0.00 0.00 0.00 35 1016.0
20260505174703 59 208 2.0 8.0 0.00 0.00 0.00 37 1016.0
20260505174204 59 226 4.0 7.0 0.00 0.00 0.00 36 1016.0
20260505173204 60 141 1.0 7.0 0.00 0.00 0.00 35 1016.0
20260505171203 58 250 5.0 8.0 0.00 0.00 0.00 37 1016.0
20260505170204 57 141 3.0 10.0 0.00 0.00 0.00 38 1016.0
20260505164704 55 214 5.0 12.0 0.00 0.00 0.00 40 1016.0
20260505164203 55 254 6.0 12.0 0.00 0.00 0.00 41 1016.0
20260505163703 54 202 2.0 12.0 0.00 0.00 0.00 42 1016.0
20260505163203 54 226 5.0 12.0 0.00 0.00 0.00 42 1016.0
20260505161703 54 251 5.0 10.0 0.00 0.00 0.00 44 1016.0
20260505161203 54 214 5.0 8.0 0.00 0.00 0.00 44 1016.0
20260505160203 54 256 5.0 13.0 0.00 0.00 0.00 43 1016.0
20260505153203 54 256 4.0 12.0 0.00 0.00 0.00 43 1016.2
20260505151704 54 271 6.0 12.0 0.00 0.00 0.00 42 1016.1
20260505151204 54 265 5.0 12.0 0.00 0.00 0.00 43 1016.1
20260505150704 54 275 7.0 12.0 0.00 0.00 0.00 43 1016.1
20260505150203 54 260 7.0 14.0 0.00 0.00 0.00 42 1016.1
20260505140204 54 255 5.0 12.0 0.00 0.00 0.00 44 1016.0
20260505130202 49 257 5.0 7.0 0.00 0.00 0.00 48 1016.1
20260505124704 48 254 1.0 3.0 0.00 0.00 0.00 49 1016.1
20260505124203 48 247 1.0 3.0 0.00 0.00 0.00 48 1016.1
20260505123703 48 246 2.0 3.0 0.00 0.00 0.00 47 1016.1
20260505123204 48 244 0.0 3.0 0.00 0.00 0.00 46 1016.1
20260505121704 49 243 0.0 0.0 0.00 0.00 0.00 43 1015.8
20260505121204 49 243 0.0 0.0 0.00 0.00 0.00 43 1015.8
20260505120704 49 243 0.0 0.0 0.00 0.00 0.00 43 1015.8
20260505120203 50 243 0.0 3.0 0.00 0.00 0.00 43 1015.8
20260505114704 50 243 0.0 0.0 0.00 0.00 0.00 42 1015.8
20260505114203 50 243 0.0 0.0 0.00 0.00 0.00 42 1015.8
20260505113703 50 243 0.0 0.0 0.00 0.00 0.00 42 1015.8
20260505113204 51 243 2.0 6.0 0.00 0.00 0.00 41 1015.8
20260505111703 51 248 3.0 6.0 0.00 0.00 0.00 41 1015.8
20260505111204 51 253 3.0 6.0 0.00 0.00 0.00 40 1015.8
20260505110703 51 254 2.0 3.0 0.00 0.00 0.00 40 1015.8
20260505101703 53 271 2.0 3.0 0.00 0.00 0.00 37 1015.6
20260505101205 53 271 1.0 3.0 0.00 0.00 0.00 37 1015.6
20260505100203 53 271 2.0 5.0 0.00 0.00 0.00 37 1015.6
20260505094203 53 281 2.0 6.0 0.00 0.00 0.00 37 1015.6
20260505093704 53 270 3.0 7.0 0.00 0.00 0.00 37 1015.6
20260505091703 53 297 2.0 5.0 0.00 0.00 0.00 38 1015.6
20260505091204 53 282 3.0 6.0 0.00 0.00 0.00 38 1015.6
20260505090703 53 265 5.0 12.0 0.00 0.00 0.00 38 1016.5
20260505090204 53 269 5.0 10.0 0.00 0.00 0.00 38 1016.5
20260505084704 53 299 1.0 2.0 0.00 0.00 0.00 37 1016.5
20260505084204 53 299 1.0 3.0 0.00 0.00 0.00 36 1016.5
20260505083705 53 300 1.0 3.0 0.00 0.00 0.00 36 1016.5
20260505083203 54 300 0.0 3.0 0.00 0.00 0.00 35 1016.5
20260505081704 55 300 1.0 3.0 0.00 0.00 0.00 34 1016.5
20260505081203 55 300 2.0 3.0 0.00 0.00 0.00 34 1016.5
20260505080703 55 320 0.0 0.0 0.00 0.00 0.00 33 1016.5
20260505074703 56 320 0.0 1.0 0.00 0.00 0.00 32 1015.9
20260505074204 57 320 0.0 2.0 0.00 0.00 0.00 32 1015.9
20260505073703 57 320 0.0 2.0 0.00 0.00 0.00 31 1015.9
20260505073203 57 320 1.0 7.0 0.00 0.00 0.00 31 1015.9
20260505071704 57 281 2.0 5.0 0.00 0.00 0.00 30 1015.9
20260505071203 57 292 2.0 6.0 0.00 0.00 0.00 30 1015.9
20260505070703 57 294 4.0 9.0 0.00 0.00 0.00 30 1015.9
20260505070203 57 315 2.0 12.0 0.00 0.00 0.00 30 1015.9
20260505064204 58 274 5.0 9.0 0.00 0.00 0.00 31 1015.9
20260505063703 58 277 3.0 10.0 0.00 0.00 0.00 31 1015.9
20260505063204 58 296 2.0 10.0 0.00 0.00 0.00 31 1015.9
20260505061203 58 269 2.0 3.0 0.00 0.00 0.00 31 1015.9
20260505060703 59 252 2.0 6.0 0.00 0.00 0.00 31 1015.9
20260505060203 59 268 5.0 10.0 0.00 0.00 0.00 31 1015.9
20260505054703 59 248 5.0 9.0 0.00 0.00 0.00 31 1015.9
20260505053703 59 248 6.0 12.0 0.00 0.00 0.00 31 1015.7
20260505051703 58 248 5.0 8.0 0.00 0.00 0.00 32 1015.7
20260505051203 59 263 3.0 6.0 0.00 0.00 0.00 32 1015.7
20260505050703 59 251 3.0 6.0 0.00 0.00 0.00 32 1015.7
20260505050203 59 281 1.0 5.0 0.00 0.00 0.00 32 1015.9
20260505041703 60 337 0.0 3.0 0.00 0.00 0.00 30 1016.0
20260505041203 60 339 1.0 3.0 0.00 0.00 0.00 30 1016.0
20260505040703 60 339 1.0 3.0 0.00 0.00 0.00 29 1015.3
20260505034703 61 339 0.0 6.0 0.00 0.00 0.00 28 1015.3
20260505034204 61 340 1.0 2.0 0.00 0.00 0.00 28 1015.3
20260505033204 61 302 2.0 9.0 0.00 0.00 0.00 28 1015.3
20260505031704 62 294 2.0 5.0 0.00 0.00 0.00 26 1015.3
20260505031203 62 310 1.0 3.0 0.00 0.00 0.00 26 1015.3
20260505030703 62 310 2.0 5.0 0.00 0.00 0.00 26 1015.3
20260505024703 62 288 3.0 10.0 0.00 0.00 0.00 25 1014.9
20260505024204 63 288 3.0 9.0 0.00 0.00 0.00 24 1014.9
20260505023703 63 280 4.0 9.0 0.00 0.00 0.00 24 1014.9
20260505023203 63 270 4.0 10.0 0.00 0.00 0.00 24 1014.9
20260505021705 63 278 5.0 13.0 0.00 0.00 0.00 23 1014.9
20260505020704 64 285 7.0 12.0 0.00 0.00 0.00 22 1014.6
20260505020204 64 285 3.0 12.0 0.00 0.00 0.00 22 1014.6
20260505014204 65 278 5.0 12.0 0.00 0.00 0.00 21 1014.6
20260505013703 65 284 7.0 13.0 0.00 0.00 0.00 21 1014.6
20260505013203 65 271 6.0 14.0 0.00 0.00 0.00 20 1014.6
20260505011704 66 272 7.0 13.0 0.00 0.00 0.00 20 1014.6
20260505011204 66 279 7.0 13.0 0.00 0.00 0.00 20 1014.6
20260505010703 66 263 6.0 12.0 0.00 0.00 0.00 20 1014.6
20260505010203 66 294 6.0 16.0 0.00 0.00 0.00 20 1014.6
20260505004703 67 273 8.0 13.0 0.00 0.00 0.00 19 1014.6
20260505004203 67 279 5.0 12.0 0.00 0.00 0.00 19 1014.6
20260505003703 67 299 7.0 15.0 0.00 0.00 0.00 19 1014.6
20260505003203 67 277 6.0 17.0 0.00 0.00 0.00 19 1014.6
20260505001704 68 260 8.0 14.0 0.00 0.00 0.00 19 1015.2
20260505001203 68 273 7.0 18.0 0.00 0.00 0.00 19 1015.2
20260505000704 68 260 9.0 13.0 0.00 0.00 0.00 19 1015.2
20260505000204 68 279 9.0 18.0 0.00 0.00 0.00 19 1015.2
20260504234704 69 271 5.0 12.0 0.00 0.00 0.00 20 1015.2
20260504234203 69 262 6.0 13.0 0.00 0.00 0.00 20 1015.2
20260504233703 69 248 7.0 17.0 0.00 0.00 0.00 19 1015.2
20260504233203 69 268 8.0 14.0 0.00 0.00 0.00 20 1015.2
20260504231704 70 280 6.0 17.0 0.00 0.00 0.00 19 1015.2
20260504231204 70 251 9.0 13.0 0.00 0.00 0.00 19 1015.2
20260504230703 70 304 4.0 12.0 0.00 0.00 0.00 20 1015.2
20260504230205 70 292 7.0 23.0 0.00 0.00 0.00 20 1015.2
20260504224704 69 263 8.0 13.0 0.00 0.00 0.00 20 1015.2
20260504224203 69 239 10.0 16.0 0.00 0.00 0.00 20 1015.2
20260504223704 69 250 13.0 20.0 0.00 0.00 0.00 19 1015.2
20260504223204 70 266 11.0 18.0 0.00 0.00 0.00 20 1015.2
20260504221704 69 284 6.0 13.0 0.00 0.00 0.00 18 1016.0
20260504221203 69 251 9.0 17.0 0.00 0.00 0.00 18 1016.0
20260504220703 70 249 10.0 17.0 0.00 0.00 0.00 18 1016.0
20260504220204 70 263 10.0 20.0 0.00 0.00 0.00 18 1016.0
20260504214705 71 275 12.0 20.0 0.00 0.00 0.00 17 1016.0
20260504214204 71 263 8.0 16.0 0.00 0.00 0.00 16 1016.0
20260504213705 72 282 11.0 21.0 0.00 0.00 0.00 16 1016.0
20260504213204 72 248 10.0 17.0 0.00 0.00 0.00 16 1016.0
20260504210703 70 258 9.0 15.0 0.00 0.00 0.00 17 1016.4
20260504210203 70 244 10.0 24.0 0.00 0.00 0.00 16 1016.8
20260504204703 71 280 8.0 17.0 0.00 0.00 0.00 17 1016.8
20260504204204 71 268 14.0 20.0 0.00 0.00 0.00 17 1017.5
20260504203703 71 247 6.0 20.0 0.00 0.00 0.00 19 1017.5
20260504203203 71 253 9.0 22.0 0.00 0.00 0.00 18 1017.5
20260504201703 71 267 10.0 16.0 0.00 0.00 0.00 19 1017.5
20260504201204 70 255 9.0 14.0 0.00 0.00 0.00 19 1017.5